Weather reports worldwide

Advertisment
San Luis Obispo, ca, United States of America (2072989): temperature & dewpoint: 13.05.2019 12:00:00 - 19.05.2019 12:00:00 (PDT)San Luis Obispo, ca, United States of America (2072989): wind speed & gusts: 13.05.2019 12:00:00 - 19.05.2019 12:00:00 (PDT)San Luis Obispo, ca, United States of America (2072989): wind direction: 13.05.2019 12:00:00 - 19.05.2019 12:00:00 (PDT)San Luis Obispo, ca, United States of America (2072989): reduced air pressure: 13.05.2019 12:00:00 - 19.05.2019 12:00:00 (PDT)San Luis Obispo, ca, United States of America (2072989): visibility: 13.05.2019 12:00:00 - 19.05.2019 12:00:00 (PDT)San Luis Obispo, ca, United States of America (2072989): precipitation: 13.05.2019 12:00:00 - 19.05.2019 12:00:00 (PDT)
Date & Time tt [°C] td [°C] ff [km/h] ff [kn] fx [km/h] fx [kn] dd ppp [hPa] vv [km] rr [mm]
19.05.2019 12:00:00 15,6 8,9 21 11 - - SSW 1011,7 16 -
19.05.2019 11:00:00 15,0 8,3 21 11 - - SSW 1011,6 16 -
19.05.2019 10:00:00 15,6 8,9 16 9 - - SW 1011,8 16 -
19.05.2019 09:00:00 15,0 9,4 9 5 - - WSW 1011,3 16 -
19.05.2019 08:00:00 13,9 10,0 11 6 - - WSW 1010,8 16 -
19.05.2019 07:00:00 11,7 11,1 5 3 - - SW 1010,2 16 -
19.05.2019 06:00:00 11,7 11,1 5 3 - - S 1009,7 16 0,5
19.05.2019 05:00:00 11,7 11,1 8 4 - - ESE 1009,4 16 0,0
19.05.2019 04:00:00 11,7 11,1 5 3 - - S 1009,8 13 1,3
19.05.2019 03:00:00 11,1 10,6 0 0 - - N 1009,8 3,2 0,8
19.05.2019 02:00:00 11,7 10,6 15 8 - - ESE 1009,8 8 0,3
19.05.2019 01:00:00 11,1 9,4 9 5 - - SSE 1010,8 13 0,0
19.05.2019 00:00:00 11,1 8,9 13 7 48 26 S 1010,7 16 0,5
18.05.2019 23:00:00 10,0 8,9 15 8 - - SE 1012,9 4,8 2,0
18.05.2019 22:00:00 10,0 8,3 9 5 - - SE 1013,5 10 2,5
18.05.2019 21:00:00 9,4 7,8 9 5 - - ESE 1014,0 8 1,8
18.05.2019 20:00:00 10,0 7,2 9 5 - - E 1014,0 16 0,5
18.05.2019 19:00:00 11,1 8,3 9 5 - - ESE 1013,7 16 0,5
18.05.2019 18:00:00 11,7 8,9 5 3 - - S 1014,3 6 0,5
18.05.2019 17:00:00 13,3 5,0 9 5 - - S 1014,9 16 -
18.05.2019 16:00:00 13,9 4,4 9 5 - - SSE 1014,6 16 0,0
18.05.2019 15:00:00 15,6 5,0 9 5 - - SW 1015,1 16 0,0
18.05.2019 14:00:00 17,2 10,0 15 8 - - WNW 1015,2 16 -
18.05.2019 13:00:00 16,7 10,6 21 11 - - NNW 1015,5 16 -
18.05.2019 12:00:00 16,1 10,0 22 12 - - NW 1015,4 16 -
18.05.2019 11:00:00 16,1 10,0 28 15 - - NW 1015,4 16 -
18.05.2019 10:00:00 17,8 8,9 8 4 - - WNW 1014,8 16 -
18.05.2019 09:00:00 15,6 8,3 5 3 - - - 1014,8 16 -
18.05.2019 08:00:00 13,3 8,3 5 3 - - WNW 1014,4 16 -
18.05.2019 07:00:00 10,6 8,3 0 0 - - N 1014,4 16 -
18.05.2019 06:00:00 10,0 8,3 11 6 - - NW 1014,4 16 -
18.05.2019 05:00:00 10,0 8,3 9 5 - - NW 1014,5 16 -
18.05.2019 04:00:00 9,4 7,2 9 5 - - WNW 1015,1 16 -
18.05.2019 03:00:00 8,9 7,2 8 4 - - WSW 1015,1 16 -
18.05.2019 02:00:00 9,4 7,8 8 4 - - WSW 1015,9 16 -
18.05.2019 01:00:00 9,4 7,2 0 0 - - N 1016,5 16 -
18.05.2019 00:00:00 10,0 7,8 0 0 - - N 1017,0 16 -
17.05.2019 23:00:00 11,1 8,3 11 6 - - WNW 1017,6 16 -
17.05.2019 22:00:00 11,1 8,3 11 6 - - NNW 1017,5 16 -
17.05.2019 21:00:00 11,7 8,3 16 9 - - NW 1018,1 16 -
17.05.2019 20:00:00 12,2 8,3 21 11 54 29 NW 1017,8 16 -
17.05.2019 19:00:00 13,9 7,2 34 18 55 30 NW 1017,5 16 -
17.05.2019 18:00:00 15,0 7,2 37 20 55 30 NW 1017,6 16 -
17.05.2019 17:00:00 16,7 8,3 35 19 50 27 NW 1018,0 16 -
17.05.2019 16:00:00 17,2 7,8 35 19 48 26 WNW 1018,3 16 -
17.05.2019 15:00:00 17,2 7,8 35 19 - - NW 1018,8 16 -
17.05.2019 14:00:00 18,3 7,2 26 14 - - WNW 1018,8 16 -
17.05.2019 13:00:00 18,3 6,1 28 15 - - WNW 1019,3 16 -
17.05.2019 12:00:00 18,9 5,0 15 8 - - NNW 1019,4 16 -
17.05.2019 11:00:00 17,2 4,4 21 11 - - N 1019,6 16 -
17.05.2019 10:00:00 16,1 5,0 18 10 - - N 1019,9 16 -
17.05.2019 09:00:00 13,9 5,6 24 13 - - N 1019,4 16 -
17.05.2019 08:00:00 12,2 7,2 16 9 - - NW 1019,7 16 -
17.05.2019 07:00:00 7,8 6,7 0 0 - - N 1019,6 16 -
17.05.2019 06:00:00 7,2 5,6 0 0 - - N 1018,6 16 -
17.05.2019 05:00:00 7,2 5,6 5 3 - - ESE 1018,7 16 -
17.05.2019 04:00:00 7,2 5,6 5 3 - - S 1018,2 16 -
17.05.2019 03:00:00 8,3 6,1 5 3 - - ESE 1018,6 16 -
17.05.2019 02:00:00 10,0 6,7 0 0 - - N 1018,8 16 -
17.05.2019 01:00:00 10,6 6,7 5 3 - - NNW 1018,6 16 -
17.05.2019 00:00:00 10,6 7,2 0 0 - - N 1018,7 16 -
16.05.2019 23:00:00 10,6 7,8 8 4 - - NW 1018,6 16 -
16.05.2019 22:00:00 11,7 8,3 13 7 - - NNW 1018,3 16 -
16.05.2019 21:00:00 11,7 8,9 18 10 - - NW 1017,4 16 -
16.05.2019 20:00:00 12,2 8,9 22 12 - - NW 1016,6 16 -
16.05.2019 19:00:00 13,9 8,9 18 10 - - WNW 1016,2 16 -
16.05.2019 18:00:00 15,6 8,9 26 14 - - NW 1015,8 16 -
16.05.2019 17:00:00 16,1 8,3 28 15 - - WNW 1015,5 16 -
16.05.2019 16:00:00 17,8 8,9 28 15 - - WNW 1015,4 16 -
16.05.2019 15:00:00 17,2 8,3 26 14 - - NW 1014,9 16 -
16.05.2019 14:00:00 17,2 8,9 24 13 - - NW 1014,6 16 -
16.05.2019 13:00:00 18,3 8,3 22 12 - - WNW 1014,4 16 -
16.05.2019 12:00:00 17,2 8,3 24 13 - - NW 1014,4 16 0,0
16.05.2019 11:00:00 17,8 10,6 21 11 - - WNW 1013,8 16 -
16.05.2019 10:00:00 15,6 9,4 16 9 - - WNW 1013,3 16 -
16.05.2019 09:00:00 15,6 11,1 15 8 - - NW 1012,8 16 -
16.05.2019 08:00:00 13,9 10,6 0 0 - - N 1012,3 16 -
16.05.2019 07:00:00 12,2 11,1 0 0 - - N 1011,7 16 0,0
16.05.2019 06:00:00 12,2 11,1 5 3 - - NW 1011,1 16 -
16.05.2019 05:00:00 11,7 11,1 13 7 - - NNW 1010,3 16 0,8
16.05.2019 04:00:00 11,7 11,1 22 12 - - NW 1009,7 8 1,0
16.05.2019 03:00:00 13,9 12,2 11 6 - - SW 1009,0 10 0,0
16.05.2019 02:00:00 14,4 12,2 28 15 - - SSE 1008,6 4,8 1,3
16.05.2019 01:00:00 13,9 12,2 24 13 - - SSE 1009,1 3,2 0,5
16.05.2019 00:00:00 13,9 12,8 0 0 - - N 1010,1 8 2,5
15.05.2019 23:00:00 15,0 12,2 11 6 - - ESE 1010,4 13 1,0
15.05.2019 22:00:00 16,1 10,0 21 11 - - SE 1010,4 16 0,0
15.05.2019 21:00:00 16,7 10,6 21 11 - - SSE 1010,6 16 -
15.05.2019 20:00:00 16,1 11,1 15 8 - - S 1010,9 16 -
15.05.2019 19:00:00 16,1 10,6 21 11 - - SSW 1011,4 16 -
15.05.2019 18:00:00 16,7 12,2 16 9 - - S 1011,8 16 -
15.05.2019 17:00:00 16,1 11,7 21 11 - - SSW 1011,5 16 -
15.05.2019 16:00:00 17,2 11,7 15 8 - - S 1011,9 16 -
15.05.2019 15:00:00 17,8 10,6 22 12 - - SW 1012,4 16 -
15.05.2019 14:00:00 20,6 10,6 16 9 - - S 1012,1 16 -
15.05.2019 13:00:00 18,3 11,1 9 5 - - SSE 1013,0 16 -
15.05.2019 12:00:00 17,8 11,1 11 6 - - SSW 1014,1 16 -
15.05.2019 11:00:00 16,7 10,6 8 4 - - SW 1014,4 16 -
15.05.2019 10:00:00 15,6 11,1 5 3 - - SW 1014,3 16 -
15.05.2019 09:00:00 13,9 10,6 9 5 - - ESE 1014,0 16 -
15.05.2019 08:00:00 13,3 10,6 0 0 - - N 1014,3 16 -
15.05.2019 07:00:00 12,2 10,0 9 5 - - ESE 1012,9 16 -
15.05.2019 06:00:00 12,2 10,0 8 4 - - ESE 1013,0 16 -
15.05.2019 05:00:00 12,2 10,6 9 5 - - WSW 1013,2 16 -
15.05.2019 04:00:00 12,2 10,0 5 3 - - S 1013,7 16 -
15.05.2019 03:00:00 12,2 10,0 0 0 - - N 1014,1 16 -
15.05.2019 02:00:00 12,8 10,0 5 3 - - SE 1013,6 16 -
15.05.2019 01:00:00 12,8 10,6 9 5 - - NW 1014,8 16 -
15.05.2019 00:00:00 13,3 10,6 9 5 - - NW 1014,7 16 -
14.05.2019 23:00:00 12,8 10,6 9 5 - - WNW 1015,7 16 -
14.05.2019 22:00:00 12,8 10,6 11 6 - - NW 1015,6 16 -
14.05.2019 21:00:00 13,3 10,6 9 5 - - NW 1015,3 16 -
14.05.2019 20:00:00 13,3 10,6 18 10 - - NW 1015,2 16 -
14.05.2019 19:00:00 14,4 10,6 22 12 - - NW 1014,8 16 -
14.05.2019 18:00:00 17,2 10,6 24 13 - - NW 1014,7 16 -
14.05.2019 17:00:00 18,3 11,1 16 9 - - WNW 1014,9 16 -
14.05.2019 16:00:00 18,3 11,1 28 15 - - NW 1015,2 16 -
14.05.2019 15:00:00 18,9 10,6 28 15 - - NW 1015,8 16 -
14.05.2019 14:00:00 21,1 11,7 22 12 - - NW 1016,1 16 -
14.05.2019 13:00:00 21,1 11,7 8 4 - - - 1016,7 16 -
14.05.2019 12:00:00 18,3 11,1 9 5 - - - 1017,5 16 -
14.05.2019 11:00:00 17,2 11,1 11 6 - - S 1017,9 16 -
14.05.2019 10:00:00 16,1 10,6 0 0 - - N 1017,7 16 -
14.05.2019 09:00:00 14,4 10,6 0 0 - - N 1017,5 16 -
14.05.2019 08:00:00 12,8 10,0 0 0 - - N 1017,3 16 -
14.05.2019 07:00:00 12,2 10,0 5 3 - - WNW 1016,9 16 -
14.05.2019 06:00:00 12,2 10,0 8 4 - - W 1016,3 16 -
14.05.2019 05:00:00 12,2 10,0 9 5 - - WNW 1016,5 16 -
14.05.2019 04:00:00 12,8 10,0 0 0 - - N 1016,3 16 -
14.05.2019 03:00:00 12,2 10,0 5 3 - - WNW 1016,5 16 -
14.05.2019 02:00:00 12,2 10,0 5 3 - - WNW 1017,1 16 -
14.05.2019 01:00:00 12,2 10,0 8 4 - - NW 1016,9 16 -
14.05.2019 00:00:00 12,8 10,6 8 4 - - WNW 1016,8 16 -
13.05.2019 23:00:00 12,8 10,6 13 7 - - NNW 1017,1 16 -
13.05.2019 22:00:00 12,8 10,6 18 10 - - NW 1017,2 16 -
13.05.2019 21:00:00 12,8 10,6 16 9 - - WNW 1016,6 16 -
13.05.2019 20:00:00 12,2 10,0 21 11 - - WNW 1016,0 16 -
13.05.2019 19:00:00 13,9 10,6 28 15 - - NW 1015,3 16 -
13.05.2019 18:00:00 16,7 11,1 31 17 - - NW 1014,9 16 -
13.05.2019 17:00:00 18,9 11,7 26 14 - - WNW 1014,4 16 -
13.05.2019 16:00:00 20,0 12,2 24 13 - - NW 1014,8 16 -
13.05.2019 15:00:00 20,6 12,8 26 14 - - WNW 1015,4 16 -
13.05.2019 14:00:00 20,0 12,2 29 16 - - NW 1015,9 16 -
13.05.2019 13:00:00 18,9 12,2 22 12 - - WNW 1016,2 16 -
13.05.2019 12:00:00 19,4 12,2 28 15 - - WNW 1016,5 16 -

tt = temperature
td = dewpoint
ff = wind speed
fx = gusts
dd = wind direction
ppp = reduced air pressure
vv = visibility
rr = precipitation

Next stations